Station KGCA2 - 9459881 - King Cove, AK Image indicating link to RSS feed of recent meteorological observations for station KGCA2


Conditions at KGCA2 as of
(4:00 pm AKDT on 06/21/2024)
0000 GMT on 06/22/2024:
     

Click on the graph icon in the table below to see a time series plot of the last five days of that observation.

5-day plot - Wind Direction Wind Direction (WDIR):NNW ( 330 deg true )
5-day plot - Wind Speed Wind Speed (WSPD): 22.0 kts
5-day plot - Wind Gust Wind Gust (GST): 29.9 kts
5-day plot - Air Temperature Air Temperature (ATMP): 51.6 °F
5-day plot - Water Temperature Water Temperature (WTMP): 44.4 °F
5-day plot - Wind Chill Wind Chill (CHILL): 45.0 °F
5-day plot - Wind Speed at 10 Meters Wind Speed at 10 meters (WSPD10M): 23.3 kts
5-day plot - Wind Speed at 20 Meters Wind Speed at 20 meters (WSPD20M): 25.3 kts
5-day plot -  Wind Speed, Wind Gust and Atmospheric Pressure Combined plot of Wind Speed, Gust, and Air Pressure
NOS Water Level Observation Network Water Level
Previous observations
TIME
(AKDT)
5-day plot - Wind Direction
WDIR
 
5-day plot - Wind Speed
WSPD
kts
5-day plot - Wind Gust
GST
kts
5-day plot - Wave Height
WVHT
ft
5-day plot - Dominant Wave Period
DPD
sec
5-day plot - Average Wave Period
APD
sec
5-day plot - Mean Wave Direction
MWD
 
5-day plot - Atmospheric Pressure
PRES
in
5-day plot - Pressure Tendency
PTDY
in
5-day plot - Air Temperature
ATMP
°F
5-day plot - Water Temperature
WTMP
°F
5-day plot - Dew Point
DEWP
°F
5-day plot - Salinity
SAL
psu
5-day plot - Visibility
VIS
nmi
5-day plot - Tide (above MLLW)
TIDE
ft
2024-06-21 03:54 pmNNW 21.0 27.0------ 52.0 44.6----
2024-06-21 03:48 pmNNW 22.9 28.0----30.08- 51.8 44.6----
2024-06-21 03:42 pmNNW 21.0 28.9----30.08- 52.0 44.8----
2024-06-21 03:36 pmNNW 21.0 28.0----30.08- 52.5 44.8----
2024-06-21 03:30 pmNNW 15.9 24.1----30.08- 52.2 44.4----
2024-06-21 03:24 pmNNW 14.0 22.9----30.08- 52.3 44.4----
2024-06-21 03:18 pmNNW 15.9 27.0----30.09-- 44.4----
2024-06-21 03:12 pmNNW 15.9 26.0----30.09-- 44.4----
2024-06-21 03:06 pmNNW 18.1 22.0----30.08-- 44.4----
2024-06-21 03:00 pmNNW 19.0 28.0----30.08+0.02 51.3 44.4----
2024-06-21 02:54 pmNNW 17.1 24.1----30.08- 51.3 44.4----
2024-06-21 02:48 pm-------30.08- 51.6 44.6----
2024-06-21 02:42 pm-------30.09- 51.1 44.6----
2024-06-21 02:36 pm-------30.09- 51.1 44.6----
2024-06-21 02:30 pmNNW 17.1 26.0----30.09- 51.3 44.8----
2024-06-21 02:24 pmNNW 17.1 27.0----30.08- 51.4 44.6----
2024-06-21 02:18 pmNNW 17.1 25.1----30.08- 51.1 44.6----
2024-06-21 02:12 pmNNW 19.0 28.0----30.08- 50.9 44.8----
2024-06-21 02:06 pmNNW 17.1 26.0----30.08- 50.9 44.6----
2024-06-21 02:00 pmNNW 18.1 26.0----30.08+0.03 51.4 44.6----
2024-06-21 01:54 pmNNW 18.1 28.0----30.07- 51.6 44.6----
2024-06-21 01:48 pmNNW 17.1 26.0----30.07- 51.3 44.6----
2024-06-21 01:42 pmNNW 19.0 25.1----30.07- 51.4 44.6----
2024-06-21 01:36 pmNNW 19.0 25.1----30.07- 50.9 44.6----
2024-06-21 01:30 pmNNW 19.0 25.1----30.07- 51.1 44.6----
2024-06-21 01:24 pmNNW 21.0 27.0----30.07- 50.7 44.8----
2024-06-21 01:18 pmNNW 21.0 28.0----30.06- 51.4 44.8----
2024-06-21 01:12 pmNNW 19.0 27.0----30.06- 50.7 44.6----
2024-06-21 01:06 pmNNW 21.0 28.0----30.06- 50.4 44.8----
2024-06-21 01:00 pmNNW 22.9 28.0----30.06+0.02 50.0 44.8----
2024-06-21 12:54 pmNNW 17.1 25.1----30.06- 49.8 44.8----
2024-06-21 12:48 pmNNW 19.0 29.9----30.06- 49.1 44.8----
2024-06-21 12:42 pmNNW 20.0 28.0----30.06- 49.1 44.8----
2024-06-21 12:36 pmNNW 25.1 28.9----30.06- 49.6 45.0----
2024-06-21 12:30 pmNNW 20.0 28.9----30.06- 49.8 45.0----
2024-06-21 12:24 pmNNW 24.1 31.1----30.06- 48.7 44.8----
2024-06-21 12:18 pmNNW 22.0 28.9----30.06- 49.3 45.0----
2024-06-21 12:12 pmNNW 21.0 28.0----30.06- 49.1 45.0----
2024-06-21 12:06 pmNNW 18.1 26.0----30.06- 48.9 45.1----
2024-06-21 12:00 pmNNW 21.0 29.9----30.06+0.03 49.1 45.1----
2024-06-21 11:54 amNNW 20.0 31.1----30.06- 48.9 45.0----
2024-06-21 11:48 amNNW 22.9 28.9----30.06- 48.6 45.0----
2024-06-21 11:42 amNNW 21.0 28.0----30.05- 48.7 45.0----
2024-06-21 11:36 am NW 22.0 28.9----30.05- 48.6 45.0----
2024-06-21 11:30 am NW 20.0 28.9----30.05- 48.4 45.0----
2024-06-21 11:24 am NW 20.0 28.0----30.05- 49.3 45.0----
2024-06-21 11:18 am NW 19.0 28.9----30.05- 49.5 44.8----
2024-06-21 11:12 amNNW 21.0 28.9----30.05- 49.6 44.8----
2024-06-21 11:06 amNNW 21.0 28.0----30.05- 49.8 44.8----
2024-06-21 11:00 amNNW 21.0 28.0----30.05+0.00 50.0 45.0----
2024-06-21 10:54 am NW 18.1 28.0----30.04- 49.6 45.0----
2024-06-21 10:48 amNNW 19.0 29.9----30.04- 49.5 45.0----
2024-06-21 10:42 amNNW 22.0 29.9----30.04- 49.3 45.0----
2024-06-21 10:36 amNNW 22.9 33.0----30.03- 49.3 45.0----
2024-06-21 10:30 amNNW 22.0 28.0----30.03- 49.5 45.0----
2024-06-21 10:24 am N 20.0 28.9----30.03- 49.5 45.1----
2024-06-21 10:18 am N 17.1 32.1----30.04- 48.9 45.1----
2024-06-21 10:12 am N 19.0 24.1----30.03- 49.1 45.1----
2024-06-21 10:06 am N 19.0 26.0----30.04- 49.3 45.0----
2024-06-21 10:00 am N 12.0 22.0----30.04+0.01 49.5 45.0----
2024-06-21 09:54 am N 15.0 27.0----30.04- 49.3 45.0----
2024-06-21 09:48 amNNW 14.0 25.1----30.04- 49.3 45.0----
2024-06-21 09:42 amNNW 17.1 25.1----30.03- 49.1 45.0----
2024-06-21 09:36 am NW 20.0 28.0----30.03- 48.9 45.0----
2024-06-21 09:30 am NW 21.0 32.1----30.02- 49.1 45.1----
2024-06-21 09:24 am NW 22.0 28.9----30.02- 48.9 45.1----
2024-06-21 09:18 am NW 19.0 28.9----30.02- 49.5 45.1----
2024-06-21 09:12 amNNW 18.1 28.0----30.03- 48.9 45.1----
2024-06-21 09:06 amNNW 17.1 22.9----30.03- 48.7 45.1----
2024-06-21 09:00 amNNW 17.1 22.0----30.03+0.01 48.4 45.1----
2024-06-21 08:54 am NW 15.9 22.0----30.03- 48.6 45.1----
2024-06-21 08:48 am NW 12.0 19.0----30.04- 48.6 45.3----
2024-06-21 08:42 amNNW 11.1 15.0----30.05- 48.6 45.1----
2024-06-21 08:36 amNNW 13.0 19.0----30.04- 48.2 45.1----
2024-06-21 08:30 amNNW 14.0 18.1----30.04- 48.0 45.1----
2024-06-21 08:24 amNNW 14.0 21.0----30.05- 48.2 45.1----
2024-06-21 08:18 am NW 13.0 18.1----30.05- 48.0 45.1----
2024-06-21 08:12 amNNW 9.9 19.0----30.05- 47.7 45.3----
2024-06-21 08:06 amNNW 12.0 24.1----30.05- 47.7 45.1----
2024-06-21 08:00 amNNW 12.0 18.1----30.05+0.03 47.3 45.1----
2024-06-21 07:54 amNNW 12.0 17.1----30.05- 47.7 45.1----
2024-06-21 07:48 amNNW 12.0 17.1----30.05- 47.3 45.1----
2024-06-21 07:42 amNNW 12.0 19.0----30.05- 46.8 45.1----
2024-06-21 07:36 am NW 14.0 19.0----30.04- 46.8 45.3----
2024-06-21 07:30 amNNW 13.0 21.0----30.04- 46.8 45.3----
2024-06-21 07:24 am NW 13.0 19.0----30.04- 46.9 45.1----
2024-06-21 07:18 amNNW 11.1 17.1----30.03- 46.6 45.1----
2024-06-21 07:12 amNNW 15.9 22.0----30.03- 46.4 45.1----
2024-06-21 07:06 am NW 19.0 22.0----30.03- 46.2 45.3----
2024-06-21 07:00 am NW 14.0 21.0----30.03+0.01 46.2 45.3----
2024-06-21 06:54 am NW 17.1 22.0----30.02- 46.6 45.1----
2024-06-21 06:48 am NW 14.0 22.0----30.02- 46.4 45.1----
2024-06-21 06:42 am NW 15.0 20.0----30.02- 46.4 45.3----
2024-06-21 06:36 am NW 17.1 21.0----30.02- 46.6 45.3----
2024-06-21 06:30 am NW 13.0 22.9----30.02- 46.2 45.3----
2024-06-21 06:24 am NW 14.0 20.0----30.02- 46.0 45.3----
2024-06-21 06:18 am NW 15.0 22.0----30.02- 46.0 45.3----
2024-06-21 06:12 am NW 13.0 19.0----30.02- 45.9 45.3----
2024-06-21 06:06 am NW 15.9 20.0----30.02- 45.5 45.5----
2024-06-21 06:00 am NW 13.0 19.0----30.02+0.02 46.2 45.5----
2024-06-21 05:54 am NW 13.0 19.0----30.02- 46.0 45.3----
2024-06-21 05:48 am NW 14.0 17.1----30.02- 46.6 45.3----
2024-06-21 05:42 am NW 12.0 17.1----30.02- 46.4 45.3----
2024-06-21 05:36 am NW 14.0 20.0----30.02- 46.4 45.5----
2024-06-21 05:30 am NW 12.0 18.1----30.02- 46.8 45.3----
2024-06-21 05:24 am NW 8.9 13.0----30.02- 46.8 45.3----
2024-06-21 05:18 am NW 8.0 15.0----30.01- 46.9 45.3----
2024-06-21 05:12 amNNW 8.9 15.9----30.01- 47.1 45.5----
2024-06-21 05:06 amWNW 11.1 18.1----30.01- 46.8 45.5----
2024-06-21 05:00 amWNW 7.0 11.1----30.02+0.02 46.8 45.5----
2024-06-21 04:54 am W 4.1 14.0----30.01- 46.8 45.5----
2024-06-21 04:48 amWNW 8.0 14.0----30.01- 46.8 45.5----
2024-06-21 04:42 am NW 6.0 12.0----30.01- 46.9 45.5----
2024-06-21 04:36 am N 6.0 12.0----30.01- 46.9 45.5----
2024-06-21 04:30 am NW 7.0 17.1----30.01- 47.1 45.5----
2024-06-21 04:24 am NW 12.0 18.1----30.01- 46.9 45.3----
2024-06-21 04:18 am NW 12.0 19.0----30.01- 46.9 45.3----
2024-06-21 04:12 am NW 13.0 18.1----30.01- 46.8 45.3----
2024-06-21 04:06 am NW 13.0 18.1----30.01- 46.8 45.3----
2024-06-21 04:00 am NW 15.0 21.0----30.01+0.03 46.9 45.3----
2024-06-21 03:54 amNNW 15.0 22.0----30.01- 46.9 45.3----
2024-06-21 03:48 amNNW 17.1 22.0----30.01- 47.1 45.3----
2024-06-21 03:42 am NW 14.0 21.0----30.01- 46.9 45.3----
2024-06-21 03:36 am NW 14.0 21.0----30.00- 47.1 45.3----
2024-06-21 03:30 am NW 19.0 22.9----30.00- 47.5 45.3----
2024-06-21 03:24 am NW 15.0 22.0----30.00- 48.0 45.3----
2024-06-21 03:18 amNNW 14.0 19.0----29.99- 47.8 45.3----
2024-06-21 03:12 amNNW 11.1 14.0----30.00- 47.7 45.3----
2024-06-21 03:06 amNNW 11.1 19.0----30.01- 47.5 45.3----
2024-06-21 03:00 am NW 8.0 15.0----30.00+0.03 47.5 45.3----
2024-06-21 02:54 am NW 8.0 17.1----30.00- 47.3 45.5----
2024-06-21 02:48 am N 7.0 14.0----30.00- 47.1 45.5----
2024-06-21 02:42 amNNW 7.0 11.1----30.00- 47.3 45.5----
2024-06-21 02:36 am NW 2.9 12.0----30.00- 47.7 45.5----
2024-06-21 02:30 am NW 4.1 17.1----30.00- 47.7 45.3----
2024-06-21 02:24 amWNW 7.0 14.0----30.00- 47.5 45.5----
2024-06-21 02:18 am NW 9.9 14.0----30.00- 47.3 45.5----
2024-06-21 02:12 amNNW 7.0 12.0----30.00- 46.9 45.5----
2024-06-21 02:06 amWNW 8.0 14.0----30.00- 46.9 45.5----
2024-06-21 02:00 am NW 8.0 15.0----29.99+0.05 46.9 45.5----
2024-06-21 01:54 amNNW 8.0 14.0----29.99- 47.3 45.3----
2024-06-21 01:48 amNNW 9.9 15.9----29.99- 47.3 45.3----
2024-06-21 01:42 am NW 9.9 14.0----29.99- 47.5 45.3----
2024-06-21 01:36 amNNW 13.0 15.9----29.99- 47.3 45.5----
2024-06-21 01:30 am N 11.1 15.0----29.99- 47.1 45.3----
2024-06-21 01:24 amNNW 9.9 15.9----29.99- 46.9 45.7----
2024-06-21 01:18 amNNW 14.0 18.1----29.99- 46.8 45.5----
2024-06-21 01:12 amNNW 9.9 17.1----29.99- 46.9 45.3----
2024-06-21 01:06 am NW 11.1 15.9----29.98- 47.1 45.3----
2024-06-21 01:00 amNNW 9.9 15.0----29.98+0.05 47.1 45.5----
2024-06-21 12:54 am NW 8.9 18.1----29.98- 47.1 45.7----
2024-06-21 12:48 am N 11.1 15.9----29.98- 47.1 45.5----
2024-06-21 12:42 amNNW 7.0 19.0----29.98- 47.3 45.5----
2024-06-21 12:36 am N 12.0 15.9----29.98- 47.3 45.5----
2024-06-21 12:30 amNNW 9.9 22.0----29.98- 47.3 45.5----
2024-06-21 12:24 am N 12.0 20.0----29.97- 47.7 45.5----
2024-06-21 12:18 am N 14.0 19.0----29.97- 48.0 45.5----
2024-06-21 12:12 am N 11.1 20.0----29.97- 48.4 45.7----
2024-06-21 12:06 amNNW 11.1 17.1----29.97- 48.6 45.7----
2024-06-21 12:00 amNNW 5.1 20.0----29.97+0.04 48.7 45.7----
2024-06-20 11:54 pm N 12.0 15.9----29.96- 48.9 45.7----
2024-06-20 11:48 pmNNW 12.0 18.1----29.96- 49.8 45.7----
2024-06-20 11:42 pm NW 11.1 15.9----29.96- 50.0 45.7----
2024-06-20 11:36 pmNNW 11.1 15.0----29.96- 49.6 45.7----
2024-06-20 11:30 pmNNW 9.9 17.1----29.96- 50.2 45.7----
2024-06-20 11:24 pm NW 8.0 14.0----29.96- 50.2 45.7----
2024-06-20 11:18 pmNNW 8.9 12.0----29.95- 50.2 45.7----
2024-06-20 11:12 pm NW 13.0 17.1----29.95- 50.4 45.9----
2024-06-20 11:06 pm NW 13.0 18.1----29.95- 50.5 45.7----
2024-06-20 11:00 pm NW 13.0 17.1----29.95+0.03 50.7 45.7----
2024-06-20 10:54 pm NW 12.0 17.1----29.95- 50.5 45.7----
2024-06-20 10:48 pm N 8.9 19.0----29.95- 50.7 45.7----
2024-06-20 10:42 pm N 9.9 18.1----29.95- 50.9 45.7----
2024-06-20 10:36 pm N 8.9 21.0----29.94- 51.1 45.7----
2024-06-20 10:30 pm NE 5.1 20.0----29.94- 51.1 45.7----
2024-06-20 10:24 pm NE 8.0 15.9----29.94- 51.1 45.7----
2024-06-20 10:18 pm W 4.1 21.0----29.94- 51.4 45.7----
2024-06-20 10:12 pm N 7.0 14.0----29.93- 50.9 45.7----
2024-06-20 10:06 pm NW 5.1 15.9----29.93- 51.4 45.7----
2024-06-20 10:00 pm N 5.1 17.1----29.93+0.02 51.1 45.7----
2024-06-20 09:54 pm N 6.0 15.9----29.93- 51.4 45.7----
2024-06-20 09:48 pm N 8.0 19.0----29.93- 51.4 45.7----
2024-06-20 09:42 pm N 4.1 14.0----29.93- 51.6 45.7----
2024-06-20 09:36 pm N 8.0 15.0----29.93- 51.6 45.7----
2024-06-20 09:30 pm NW 8.9 17.1----29.93- 51.8 45.9----
2024-06-20 09:24 pm NW 13.0 18.1----29.92- 51.8 45.9----
2024-06-20 09:18 pmNNW 9.9 17.1----29.92- 52.0 45.7----
2024-06-20 09:12 pm N 11.1 17.1----29.92- 51.6 45.7----
2024-06-20 09:06 pmNNW 8.9 13.0----29.92- 51.6 45.7----
2024-06-20 09:00 pmNNW 9.9 15.0----29.92+0.02 51.6 45.7----
2024-06-20 08:54 pmNNW 8.9 15.0----29.92- 51.6 45.7----
2024-06-20 08:48 pmNNW 5.1 13.0----29.92- 51.6 45.7----
2024-06-20 08:42 pmNNW 8.0 12.0----29.92- 51.4 45.7----
2024-06-20 08:36 pm NW 8.0 12.0----29.92- 51.6 45.7----
2024-06-20 08:30 pm NW 9.9 13.0----29.92- 51.4 45.7----
2024-06-20 08:24 pm NW 8.9 18.1----29.92- 51.6 45.7----
2024-06-20 08:18 pmWNW 8.0 14.0----29.92- 51.6 45.7----
2024-06-20 08:12 pmWNW 8.9 13.0----29.92- 51.6 45.9----
2024-06-20 08:06 pmWNW 8.9 13.0----29.92- 51.8 45.9----
2024-06-20 08:00 pmWNW 12.0 17.1----29.92+0.02 51.8 45.9----
2024-06-20 07:54 pm NW 12.0 17.1----29.92- 51.6 45.7----
2024-06-20 07:48 pm NW 14.0 18.1----29.92- 51.6 45.7----
2024-06-20 07:42 pm NW 15.0 17.1----29.92- 51.6 45.7----
2024-06-20 07:36 pm NW 13.0 18.1----29.92- 51.4 45.7----
2024-06-20 07:30 pm NW 14.0 19.0----29.91- 51.3 45.7----
2024-06-20 07:24 pm NW 14.0 18.1----29.91- 51.3 45.7----
2024-06-20 07:18 pm NW 13.0 18.1----29.91- 51.4 45.7----
2024-06-20 07:12 pm N 7.0 18.1----29.91- 51.8 45.7----
2024-06-20 07:06 pm N 8.0 14.0----29.91- 52.2 45.7----
2024-06-20 07:00 pm N 7.0 11.1----29.91+0.01 52.3 45.7----
2024-06-20 06:54 pm N 6.0 9.9----29.91- 52.5 45.7----
2024-06-20 06:48 pmNNW 6.0 15.0----29.91- 52.5 45.7----
2024-06-20 06:42 pm NW 11.1 13.0----29.91- 52.7 45.7----
2024-06-20 06:36 pmNNW 5.1 11.1----29.91- 52.9 45.7----
2024-06-20 06:30 pmNNW 8.0 13.0----29.91- 52.7 45.7----
2024-06-20 06:24 pm NW 4.1 6.0----29.91- 52.9 45.7----
2024-06-20 06:18 pm E 2.9 6.0----29.91- 51.4 45.7----
2024-06-20 06:12 pmESE 1.0 4.1----29.91- 50.9 45.7----
2024-06-20 06:06 pmESE 2.9 4.1----29.91- 50.4 45.7----
2024-06-20 06:00 pm- 0.0 2.9----29.91+0.01 50.7 45.7----
2024-06-20 05:54 pm- 0.0 1.9----29.91- 50.4 45.7----
2024-06-20 05:48 pm SE 1.0 2.9----29.91- 50.0 45.7----
2024-06-20 05:42 pm- 0.0 1.9----29.90- 50.2 45.7----
2024-06-20 05:36 pmSSW 1.9 4.1----29.90- 50.2 45.7----
2024-06-20 05:30 pm S 2.9 4.1----29.90- 50.2 45.7----
2024-06-20 05:24 pm S 2.9 4.1----29.90- 50.0 45.7----
2024-06-20 05:18 pmSSE 2.9 4.1----29.90- 50.2 45.5----
2024-06-20 05:12 pm SE 4.1 4.1----29.90- 50.2 45.5----
2024-06-20 05:06 pm S 1.9 2.9----29.91- 50.2 45.7----
2024-06-20 05:00 pm SE 2.9 7.0----29.90+0.02 49.8 45.5----
2024-06-20 04:54 pmESE 6.0 7.0----29.90- 49.6 45.5----
2024-06-20 04:48 pmSSE 2.9 7.0----29.90- 50.7 45.7----
2024-06-20 04:42 pm S 6.0 7.0----29.90- 50.5 45.7----
2024-06-20 04:36 pm S 2.9 5.1----29.90- 50.9 45.5----
2024-06-20 04:30 pm SW 6.0 9.9----29.90- 51.6 45.5----
2024-06-20 04:24 pm S 6.0 9.9----29.90- 50.2 45.5----
2024-06-20 04:18 pm- 0.0 1.9----29.89- 53.8 45.5----
2024-06-20 04:12 pm- 0.0 1.0----29.89- 53.8 45.5----
2024-06-20 04:06 pm- 0.0 2.9----29.89- 53.8 45.3----
2024-06-20 04:00 pmNNE 1.0 4.1----29.90+0.02 53.6 45.3----
2024-06-20 03:54 pm N 2.9 5.1----29.90- 53.2 45.3----